Погода в Красноселькупе

Погода в Красноселькупе : погода сейчас, прогноз погоды и архив. Всё, что Вы хотите узнать о погоде в Красноселькупе!

Поиск расширенной информации на нашем сайте:

Другие новости

Новости СМИ2

Главная страница сайта

Новости сайта

03.07.2017

Напоминаем, что на нашем специализированном сайте Метеоцентр.Азия вы можете получить высокодетализированные автоматические прогнозы погоды по пунктам России, СНГ и мира в авиационном формате (включающие направление и скорость ветра, видимость, явления погоды, количество и форму облачности, нижнюю и верхнюю границу облачности).


Погода в Красноселькупе - сегодня

Время (UTC), дата Ветер
(°,м/с) 
Видим.   Явления Облачность Т
(°С)
Тd
(°С)
f(%) Тe
(°С)
Pmin
(гПа)
dP
(гПа)
Po
(мм)
O2
(г/м3)
Тmin Tmax R s Состояние
почвы
00 17.06.18 040 (СВ) 20000 м  {гроза, ливн. осадки}  1/1 1000 м 
[Cu hum]
+20.5 +9.8 50 +21  1009.3  755  281           
06 17.06.18 100 (В) 20000 м    4/4 600 м 
[Cu hum]
+28.7 +5.3 23 +29  1007.6  -0.9  754  274           
09 17.06.18 100 (В) 4{11}  20000 м    5/5 600 м 
[Cu hum]
+29.7 +3.2 18 +30  1006  -1.6  752  273           
12 17.06.18 120 (ЮВ) 20000 м    4/1 600 м верхняя 
[Cu hum|Ci fib]
+29.1 +2.6 18 +29  1006.7  0.7  753  274           
15 17.06.18 230 (ЮЗ) 5{10}  20000 м    10/5 300 м верхняя 
[Sc|Ci fib]
+22.2 +11.7 51 +26  1007.9  1.2  754  279    +29.7       
00 18.06.18 тихо ()   20000 м  {ливн. осадки}  9/9 300 м кучево-дожд. 
[Cb cap]
+15.1 +12.8 86 +20  1010.2  1.1  755  286           
03 18.06.18 210 (ЮЗ) 10 км  {ливн. осадки}  8/8 330 м кучево-дожд. 
[Cb cap]
+17.3 +13.9 80 +26  1009.6  -0.5  755  283  +14.6    0.7     
06 18.06.18 160 (Ю) 20000 м  {ливн. осадки}  9/6 300 м кучево-дожд., средняя, верхняя 
[Cb cap|Ac trans|Ci fib]
+20.2 +10.9 55 +22  1008.5  -1  754  281           
09 18.06.18 160 (Ю) 20000 м    10/6 300 м кучево-дожд., средняя 
[Cb cap|Ac trans]
+20.5 +10.8 54 +23  1007.5  -1.1  753  280           
15 18.06.18 150 (ЮВ) 20000 м  {ливн. осадки}  5/4 300 м верхняя 
[Sc|Ci fib]
+18.4 +10.2 59 +21  1006.6  -0.9  753  282    +21.4     
18 18.06.18 150 (ЮВ) 20000 м    8/5 300 м средняя, верхняя 
[Ac und|Ci fib]
+15.8 +11.3 75 +20  1006.1  -0.5  752  284           
21 18.06.18 060 (СВ) 20000 м    10/0 средняя, верхняя 
[Ac trans|Ci fib]
+14.6 +12 84 +19  1005.3  -0.8  752  285           
00 19.06.18 080 (В) 10 км  слаб. ливневой дождь  10/5 200 м кучево-дожд., средняя 
[Cb cap|Ac trans]
+15.2 +14.1 93 +23  1004.2  -1.1  751  284           
03 19.06.18 080 (В) 20000 м  {ливн. осадки}  10/10 300 м кучево-дожд. 
[Cb cap]
+20.1 +15.1 73 +29  1002.5  -1.7  750  278  +14.5       
06 19.06.18 110 (В) 20000 м  {ливн. осадки}  8/4 600 м кучево-дожд., средняя 
[Cb cap|Ac trans]
+25.7 +12.7 44 +31  999.6  -2.8  748  273           
15 19.06.18 тихо () {10}  20000 м  {гроза}  9/3 1000 м кучево-дожд., средняя 
[Cb cap|Ac trans]
+21.2 +15.3 69 +31  997.7  1.3  746  276    +28.8       
18 19.06.18 170 (Ю) 20000 м    9/6 300 м кучево-дожд., средняя 
[Cb cap|Ac trans]
+19.2 +14.5 74 +29  997.4  -0.3  746  278           
21 19.06.18 300 (СЗ) 20000 м    9/8 300 м кучево-дожд., средняя 
[Cb cap|Ac trans]
+17 +14.8 87 +26  996.7  -0.7  745  280           
00 20.06.18 320 (СЗ) 20000 м    6/6 300 м кучево-дожд. 
[Cb cap]
+18.5 +15.1 81 +28  995.5  -1.2  744  278           
06 20.06.18 050 (СВ) 20000 м  гроза без осадков  9/6 300 м кучево-дожд. 
[Cb cap]
+27.8 +13.6 42 +34  990.5  -3.2  741  268           
15 20.06.18 130 (ЮВ) 20000 м  {гроза, ливн. осадки}  9/9 300 м кучево-дожд. 
[Cb cap]
+17.4 +15.3 87 +27  992  -1.5  742  278    +27.8     
21 20.06.18 120 (ЮВ) 20000 м    3/0 средняя 
[Ac trans]
+13.1 +8.9 76 +13  992.8  742  284           
00 21.06.18 120 (ЮВ) 5{10}  20000 м    3/0 средняя, верхняя 
[Ac trans|Ci fib]
+16.3 +8.9 62 +16  991.9  -0.9  742  280           
03 21.06.18 130 (ЮВ) 6-10{12}  20000 м    8/0 средняя, верхняя 
[Ac trans|Ci fib]
+19.1 +7.9 48 +19  991  -0.9  741  278  +12.9         
15 21.06.18 140 (ЮВ) 20000 м  {ливн. осадки}  8/8 200 м кучево-дожд. 
[Cb cap]
+16.5 +11.8 74 +21  992.7  0.6  742  280    +22.4  0.7     
Время (UTC), дата Ветер
(°,м/с) 
Видим.   Явления Облачность Т
(°С)
Тd
(°С)
f(%) Тe
(°С)
Pmin
(гПа)
dP
(гПа)
Po
(мм)
O2
(г/м3)
Тmin Tmax R s Состояние
почвы

Для получения пояснительной информации подведите курсор к названию столбца.

ПОГОДА в Красноселькупе - архив

Всё, что Вы хотите узнать о погоде в Красноселькупе - удобно и подробно!

Выберите нужную дату (начиная с 1 января 2015* года) и нажмите кнопку "Найти".
Будут отображены архивные сводки погоды по пункту Красноселькуп, начиная с указанной даты.


Отображать данные в формате CSV (для использования в таблицах Excel)


Внимание! Наш архив погоды предназначен исключительно для личного некоммерческого использования в познавательных целях. Если Вам необходимы официальные справки о состоянии погоды (для производственных, юридических, коммерческих и т.п. целей), обращайтесь в органы Росгидромета.

*Примечание: данная дата относится к архиву по метеостанциям СССР (Россия, СНГ, Балтия).
Архив по метеостанциям Зарубежной Европы и Азии (кроме Китая) хранится 10 дней, по другим регионам земного шара (Китай, Африка, Америка, Австралия, Океания) - 1 день.

Красноселькуп - район местоположения метеостанции


Название, широта, долгота, высота метеостанции:
Красноселькуп 65.7°ш. 82.5°д. 60 м над ур. моря [Российская Федерация]

Дополнительная информация

В oтличие oт бoльшинства пoгoдных сайтoв мы публикуем пoдрoбную метеoинфoрмацию в детальнoм прoфессиoнальнoм фoрмате.

Характеристики температуры и влажнoсти вoздуха измеряются на высoте 2 м в тени вдали oт зданий и деревьев.
Скoрoсть ветра измеряется на высoте 10 м (на урoвне рoста челoвека скoрoсть ветра ниже в 1.5-2 раза). Если метеoстанция нахoдится в гoрoде или в лесу, тo скoрoсть ветра занижена на 2-4 м/с пo сравнению с oткрытым местoм. Скoрoсть ветра над акватoриями крупных рек и oзёр, а также на вершинах хoлмoв на 2-5 м/с выше, чем в oбычных услoвиях.
Атмoсфернoе давление в разных тoчках местнoсти мoжет значительнo oтличаться oт давления на метеoстанции, в зависимoсти oт услoвий рельефа (при пoдъёме на 10 м давление пoнижается примернo на 1 мм рт.ст.).